Retour au catalogue

GRUS-3B

ActifScienceSSO
NORAD 69918·PAYLOAD·🇫🇮 Finland

Lancé Jul 7, 2026 depuis Vandenberg Space Force Base

Loading…

Prochains Passages (prochaines 24 heures)

TLE

FraisSource: Space-Track

Époque: Sep 14, 2026, 03:52 UTC

1 69918U 26156BB  26257.16155677  .00000632  00000-0  68185-4 0  9996
2 69918  97.7472 156.4800 0004924 292.1087  67.9609 14.91825705 10261

Suivez GRUS-3B en temps réel avec AllMySat

Download on the App Store